Flag Weather past 2 weeks in Schwabach, Bavaria, Germany

Now
36 °F

Fog.


Feels Like: 36 °F
Forecast: 31 / 42 °F
Wind: 1 mph from North

Location: Nuernberg

Current Time: Nov 25, 2014 at 3:07:57 AM

Latest Report: Nov 25, 2014 at 2:20 AM


Visibility: 2 mi

Pressure: 30.30 "Hg

Humidity: 100%

Dew point: 36 °F

Location of SchwabachLocation

Historic Weather in Schwabach — Graph

°F

Schwabach temperature yesterday

Maximum temperature yesterday: 45 °F (at 11:50 AM)
Minimum temperature yesterday: 39 °F (at 12:20 AM)
Average temperature yesterday: 42 °F

Past Weeks' High & Low Weather Summary

 TemperatureHumidityPressure
High54 °F (Nov 11, 2:20 PM)100% (Nov 10, 1:20 AM)30.30 "Hg (Nov 10, 1:20 AM)
Low30 °F (Nov 22, 6:20 AM)66% (Nov 21, 10:50 AM)29.47 "Hg (Nov 16, 1:20 AM)
Average43 °F94%29.93 "Hg
* Reported Nov 10 1:20 AM — Nov 25 1:50 AM, Schwabach, Weather by CustomWeather, © 2014

Note: Actual official high and low records may vary slightly from our data, if they occured in-between our weather recording intervals... More about our weather records

Advertising

Schwabach weather history for previous 24 hours

 ConditionsComfort  
Time TempWeatherWind HumidityBarometerVisibility
1:50 AM
Nov 25
37 °FPassing clouds.3 mph100%30.30 "Hg4 mi
1:20 AM37 °FPassing clouds.3 mph100%30.30 "HgN/A
12:50 AM41 °FPassing clouds.2 mph100%30.30 "Hg6 mi
12:20 AM41 °FPassing clouds.3 mph93%30.30 "Hg6 mi
11:50 PM
Nov 24
41 °FPassing clouds.1 mph100%30.30 "HgN/A
11:20 PM41 °FPartly cloudy.1 mph100%30.30 "HgN/A
10:50 PM41 °FPartly cloudy.2 mph100%30.30 "HgN/A
10:20 PM43 °FPartly cloudy.1 mph93%30.30 "HgN/A
9:50 PM43 °FPartly cloudy.1 mph93%30.30 "HgN/A
9:20 PM43 °FPartly cloudy.2 mph93%30.30 "HgN/A
8:20 PM43 °FPartly cloudy.1 mph93%30.30 "HgN/A
7:50 PM43 °FPartly cloudy.1 mph93%30.30 "HgN/A
7:20 PM43 °FPassing clouds.2 mph93%30.27 "HgN/A
6:50 PM43 °FMostly cloudy.2 mph93%30.27 "HgN/A
6:20 PM43 °FOvercast.2 mph93%30.27 "HgN/A
5:50 PM43 °FOvercast.1 mph93%30.27 "HgN/A
5:20 PM43 °FOvercast.1 mph93%30.27 "HgN/A
4:50 PM45 °FOvercast.1 mph87%30.27 "HgN/A
4:20 PM45 °FOvercast.2 mph87%30.27 "HgN/A
3:50 PM45 °FOvercast.2 mph87%30.24 "HgN/A
3:20 PM45 °FOvercast.1 mph87%30.24 "HgN/A
2:50 PM45 °FOvercast.3 mph87%30.24 "HgN/A
2:20 PM45 °FBroken clouds.3 mph87%30.24 "HgN/A
1:50 PM45 °FBroken clouds.2 mph87%30.21 "HgN/A
1:20 PM45 °FBroken clouds.2 mph87%30.21 "HgN/A
12:50 PM45 °FBroken clouds.2 mph87%30.21 "HgN/A
12:20 PM45 °FPartly sunny.2 mph87%30.21 "HgN/A
11:50 AM45 °FPartly sunny.1 mph87%30.21 "HgN/A
11:20 AM43 °FPartly sunny.3 mph93%30.21 "HgN/A
10:50 AM43 °FPartly sunny.3 mph93%30.21 "HgN/A
10:20 AM43 °FBroken clouds.3 mph87%30.21 "HgN/A
9:50 AM43 °FBroken clouds.3 mph87%30.21 "HgN/A
9:20 AM41 °FBroken clouds.2 mph93%30.18 "Hg6 mi
8:50 AM41 °FScattered clouds.6 mph93%30.18 "Hg6 mi
8:20 AM41 °FBroken clouds.5 mph93%30.15 "Hg6 mi
7:50 AM41 °FPartly sunny.6 mph93%30.15 "Hg6 mi
7:20 AM41 °FPassing clouds.7 mph93%30.15 "Hg6 mi
6:50 AM41 °FLow clouds.6 mph93%30.15 "HgN/A
6:20 AM41 °FLow clouds.6 mph93%30.15 "HgN/A
5:50 AM41 °FPassing clouds.7 mph93%30.15 "HgN/A
5:20 AM41 °FPassing clouds.6 mph93%30.15 "HgN/A
4:50 AM41 °FPassing clouds.6 mph93%30.15 "HgN/A
4:20 AM41 °FLow clouds.6 mph93%30.15 "HgN/A
3:50 AM41 °FLow clouds.7 mph93%30.15 "HgN/A
3:20 AM41 °FLow clouds.7 mph93%30.15 "HgN/A
Weather by CustomWeather, © 2014

See weather overviewHow to use our weather pages